Regional Weather Roundup
Issued by NWS Raleigh/Durham, NC

Home | Current Version | Previous Version | Text Only | Print | Product List | Glossary On
Versions: 1 2 3 4 5 6 7 8 9 10 11 12 13 14 15 16 17 18 19 20 21 22 23 24 25 26 27 28 29 30 31 32 33 34 35 36 37 38 39 40 41 42 43 44 45 46 47 48 49 50
000
ASUS42 KRAH 171610
RWRRAH
NORTH CAROLINA WEATHER ROUNDUP
NATIONAL WEATHER SERVICE RALEIGH NC
1200 PM EDT TUE OCT 17 2017

NOTE: "FAIR" INDICATES FEW OR NO CLOUDS BELOW 12,000 FEET WITH NO
SIGNIFICANT WEATHER AND/OR OBSTRUCTIONS TO VISIBILITY.

NCZ001-053-055-056-065-067-171700-
WESTERN NORTH CAROLINA

CITY           SKY/WX    TMP DP  RH WIND       PRES   REMARKS
ASHEVILLE      SUNNY     54  39  57 SW6       30.38S
JEFFERSON      SUNNY     47  32  54 CALM      30.37F
MORGANTON      SUNNY     59  40  49 CALM      30.42S
HICKORY          N/A     60  37  42 E9        30.38S
RUTHERFORDTON  SUNNY     60  36  41 CALM      30.39F
MOUNT AIRY     SUNNY     60  36  41 N7        30.40S
BOONE          SUNNY     52  32  45 E3        30.37S
$$

NCZ021-022-025-041-071-084-088-171700-
CENTRAL NORTH CAROLINA

CITY           SKY/WX    TMP DP  RH WIND       PRES   REMARKS
CHARLOTTE      MOSUNNY   62  39  42 NE13G20   30.38S
GREENSBORO     MOSUNNY   58  40  51 NE10      30.37F
WINSTON-SALEM  SUNNY     58  38  47 E8        30.39S
RALEIGH-DURHAM MOSUNNY   59  37  44 NE9G20    30.37S
FORT BRAGG     SUNNY     62  36  38 NE10      30.34S
FAYETTEVILLE   SUNNY     62  42  47 NE13G24   30.34S
BURLINGTON     SUNNY     61  40  45 NE8       30.38S
LAURINBURG     SUNNY     63  36  36 NE16      30.35F
$$

NCZ011-015-027-028-043-044-047-080-103-171700-
NORTHEASTERN NORTH CAROLINA

CITY           SKY/WX    TMP DP  RH WIND       PRES   REMARKS
ROCKY MT-WILSO SUNNY     60  41  49 N12       30.35F
GREENVILLE     SUNNY     59  45  58 N12       30.34S
WASHINGTON     CLOUDY    61  44  53 N13       30.33S
ELIZABETH CITY MOSUNNY  N/A N/A N/A MISG      30.33R
MANTEO         PTSUNNY  N/A N/A N/A N18G25    30.31R
CAPE HATTERAS  CLOUDY    63  49  60 NE12G26   30.27S
$$

NCZ078-087-090-091-093-098-101-171700-
SOUTHEASTERN NORTH CAROLINA

CITY           SKY/WX    TMP DP  RH WIND       PRES   REMARKS
LUMBERTON      SUNNY     62  42  47 NE15G25   30.33F
GOLDSBORO      SUNNY     60  44  55 N14       30.32F
KINSTON        SUNNY     61  45  55 NE12G20   30.33F
KENANSVILLE    CLOUDY    61  43  51 N14G21    30.33F
NEW BERN       CLOUDY    60  48  64 N10       30.31F
CHERRY POINT   CLOUDY    61  50  67 N17G25    30.30S
BEAUFORT       CLOUDY    63  49  60 N20G28    30.27S
JACKSONVILLE   CLOUDY    59  46  62 N13       30.30S
WILMINGTON     CLOUDY    59  45  59 N13G22    30.31R
$$




USA.gov is the U.S. government's official web portal to all federal, state and local government web resources and services.